TimeEDT,TemperatureF,Dew PointF,Humidity,Sea Level PressureIn,VisibilityMPH,Wind Direction,Wind SpeedMPH,Gust SpeedMPH,PrecipitationIn,Events,Conditions,WindDirDegrees,DateUTC
12:15 AM,46.4,15.8,29,30.00,10.0,SE,11.5,19.6,N/A,,Partly Cloudy,140,2013-04-07 04:15:00
12:35 AM,46.4,15.8,29,29.99,10.0,SSE,10.4,19.6,N/A,,Partly Cloudy,150,2013-04-07 04:35:00
12:55 AM,46.4,15.8,29,29.98,10.0,SE,9.2,18.4,N/A,,Partly Cloudy,140,2013-04-07 04:55:00
1:15 AM,46.4,17.6,32,29.97,10.0,SE,12.7,20.7,N/A,,Clear,140,2013-04-07 05:15:00
1:35 AM,46.4,17.6,32,29.97,10.0,SSE,11.5,18.4,N/A,,Clear,150,2013-04-07 05:35:00
1:55 AM,46.4,17.6,32,29.97,10.0,SE,9.2,-,N/A,,Clear,140,2013-04-07 05:55:00
2:15 AM,46.4,17.6,32,29.96,10.0,SSE,10.4,-,N/A,,Clear,150,2013-04-07 06:15:00
2:35 AM,46.4,19.4,34,29.95,10.0,SSE,11.5,-,N/A,,Clear,150,2013-04-07 06:35:00
2:55 AM,46.4,19.4,34,29.94,10.0,SSE,11.5,-,N/A,,Scattered Clouds,160,2013-04-07 06:55:00
3:15 AM,46.4,19.4,34,29.93,10.0,SSE,12.7,20.7,N/A,,Partly Cloudy,150,2013-04-07 07:15:00
3:35 AM,48.2,21.2,34,29.93,10.0,SSE,13.8,-,N/A,,Clear,160,2013-04-07 07:35:00
3:55 AM,48.2,21.2,34,29.92,10.0,South,15.0,24.2,N/A,,Clear,170,2013-04-07 07:55:00
4:15 AM,48.2,21.2,34,29.91,10.0,SSE,17.3,-,N/A,,Clear,160,2013-04-07 08:15:00
4:35 AM,48.2,23.0,37,29.90,10.0,SSE,18.4,25.3,N/A,,Clear,150,2013-04-07 08:35:00
4:55 AM,48.2,24.8,40,29.90,10.0,South,16.1,23.0,N/A,,Clear,170,2013-04-07 08:55:00
5:15 AM,48.2,24.8,40,29.91,10.0,South,15.0,21.9,N/A,,Mostly Cloudy,170,2013-04-07 09:15:00
5:35 AM,50.0,24.8,37,29.90,10.0,South,15.0,23.0,N/A,,Mostly Cloudy,170,2013-04-07 09:35:00
5:55 AM,51.8,26.6,38,29.89,10.0,South,18.4,25.3,N/A,,Partly Cloudy,170,2013-04-07 09:55:00
6:15 AM,51.8,28.4,41,29.89,10.0,South,17.3,24.2,N/A,,Clear,170,2013-04-07 10:15:00
6:35 AM,51.8,28.4,41,29.89,10.0,South,15.0,24.2,N/A,,Scattered Clouds,170,2013-04-07 10:35:00
6:55 AM,51.8,28.4,41,29.88,10.0,South,19.6,25.3,N/A,,Scattered Clouds,170,2013-04-07 10:55:00
7:15 AM,51.8,28.4,41,29.88,10.0,South,18.4,24.2,N/A,,Clear,170,2013-04-07 11:15:00
7:35 AM,51.8,28.4,41,29.88,10.0,South,18.4,23.0,N/A,,Clear,170,2013-04-07 11:35:00
7:55 AM,51.8,30.2,44,29.88,10.0,South,16.1,27.6,N/A,,Clear,170,2013-04-07 11:55:00
8:15 AM,53.6,30.2,41,29.87,10.0,South,16.1,24.2,N/A,,Clear,170,2013-04-07 12:15:00
8:35 AM,53.6,30.2,41,29.87,10.0,South,20.7,26.5,N/A,,Clear,190,2013-04-07 12:35:00
8:55 AM,55.4,32.0,41,29.86,10.0,South,21.9,27.6,N/A,,Scattered Clouds,180,2013-04-07 12:55:00
9:15 AM,55.4,32.0,41,29.86,10.0,South,20.7,28.8,N/A,,Overcast,190,2013-04-07 13:15:00
9:35 AM,57.2,33.8,41,29.86,10.0,South,19.6,28.8,N/A,,Overcast,190,2013-04-07 13:35:00
9:55 AM,57.2,33.8,41,29.86,10.0,SSW,16.1,31.1,N/A,,Overcast,200,2013-04-07 13:55:00
10:15 AM,57.2,33.8,41,29.86,10.0,SSW,15.0,25.3,N/A,,Overcast,200,2013-04-07 14:15:00
10:35 AM,60.8,35.6,39,29.86,10.0,SSW,18.4,27.6,N/A,,Mostly Cloudy,210,2013-04-07 14:35:00
10:55 AM,60.8,35.6,39,29.85,10.0,SSW,17.3,29.9,N/A,,Mostly Cloudy,200,2013-04-07 14:55:00
11:15 AM,60.8,35.6,39,29.86,10.0,SSW,19.6,31.1,N/A,,Overcast,200,2013-04-07 15:15:00
11:35 AM,62.6,35.6,37,29.87,10.0,SSW,15.0,27.6,N/A,,Scattered Clouds,210,2013-04-07 15:35:00
11:55 AM,62.6,37.4,39,29.87,10.0,SW,15.0,24.2,N/A,,Scattered Clouds,220,2013-04-07 15:55:00
12:15 PM,62.6,37.4,39,29.87,10.0,SW,19.6,31.1,N/A,,Clear,230,2013-04-07 16:15:00
12:35 PM,64.4,37.4,37,29.87,10.0,SW,21.9,34.5,N/A,,Partly Cloudy,220,2013-04-07 16:35:00
12:55 PM,64.4,39.2,40,29.87,10.0,SW,20.7,27.6,N/A,,Partly Cloudy,230,2013-04-07 16:55:00
1:15 PM,66.2,39.2,37,29.86,10.0,SSW,20.7,27.6,N/A,,Clear,210,2013-04-07 17:15:00
1:35 PM,66.2,39.2,37,29.86,10.0,SSW,21.9,31.1,N/A,,Scattered Clouds,200,2013-04-07 17:35:00
1:55 PM,68.0,39.2,35,29.86,10.0,SSW,23.0,28.8,N/A,,Scattered Clouds,200,2013-04-07 17:55:00
2:15 PM,68.0,39.2,35,29.86,10.0,SW,17.3,31.1,N/A,,Mostly Cloudy,220,2013-04-07 18:15:00
2:35 PM,66.2,39.2,37,29.86,10.0,SW,18.4,26.5,N/A,,Overcast,230,2013-04-07 18:35:00
2:55 PM,66.2,39.2,37,29.86,10.0,SW,18.4,27.6,N/A,,Overcast,230,2013-04-07 18:55:00
3:15 PM,68.0,39.2,35,29.86,10.0,WSW,12.7,27.6,N/A,,Mostly Cloudy,240,2013-04-07 19:15:00
3:35 PM,69.8,39.2,33,29.85,10.0,WSW,16.1,27.6,N/A,,Scattered Clouds,240,2013-04-07 19:35:00
3:55 PM,68.0,37.4,33,29.86,10.0,WSW,20.7,27.6,N/A,,Overcast,250,2013-04-07 19:55:00
4:15 PM,68.0,37.4,33,29.86,10.0,WSW,16.1,23.0,N/A,,Overcast,240,2013-04-07 20:15:00
4:35 PM,68.0,37.4,33,29.86,10.0,West,13.8,23.0,N/A,,Overcast,260,2013-04-07 20:35:00
4:55 PM,66.2,37.4,35,29.87,10.0,WSW,9.2,18.4,N/A,,Overcast,240,2013-04-07 20:55:00
5:15 PM,66.2,39.2,37,29.87,10.0,WSW,11.5,19.6,N/A,,Overcast,250,2013-04-07 21:15:00
5:35 PM,66.2,41.0,40,29.88,10.0,West,12.7,17.3,N/A,,Mostly Cloudy,270,2013-04-07 21:35:00
5:55 PM,66.2,42.8,43,29.89,10.0,NW,9.2,17.3,N/A,,Scattered Clouds,310,2013-04-07 21:55:00
6:15 PM,64.4,42.8,45,29.91,10.0,WNW,11.5,16.1,N/A,,Clear,300,2013-04-07 22:15:00
6:35 PM,62.6,42.8,48,29.92,10.0,NW,8.1,17.3,N/A,,Clear,320,2013-04-07 22:35:00
6:55 PM,60.8,41.0,48,29.93,10.0,WNW,11.5,18.4,N/A,,Clear,290,2013-04-07 22:55:00
7:15 PM,59.0,41.0,51,29.94,10.0,NW,10.4,16.1,N/A,,Clear,310,2013-04-07 23:15:00
7:35 PM,57.2,41.0,55,29.95,10.0,NW,8.1,-,N/A,,Clear,320,2013-04-07 23:35:00
7:55 PM,55.4,39.2,54,29.96,10.0,NW,10.4,17.3,N/A,,Clear,310,2013-04-07 23:55:00
8:15 PM,53.6,39.2,58,29.97,10.0,WNW,9.2,16.1,N/A,,Clear,300,2013-04-08 00:15:00
8:35 PM,51.8,37.4,58,29.98,10.0,WNW,8.1,-,N/A,,Clear,300,2013-04-08 00:35:00
8:55 PM,51.8,37.4,58,29.99,10.0,WNW,6.9,-,N/A,,Clear,300,2013-04-08 00:55:00
9:15 PM,50.0,37.4,62,29.99,10.0,WNW,5.8,-,N/A,,Clear,300,2013-04-08 01:15:00
9:35 PM,48.2,37.4,66,30.00,10.0,NW,5.8,-,N/A,,Clear,310,2013-04-08 01:35:00
9:55 PM,48.2,37.4,66,30.01,10.0,NNW,4.6,-,N/A,,Clear,340,2013-04-08 01:55:00
10:15 PM,46.4,35.6,66,30.01,10.0,NNW,3.5,-,N/A,,Clear,340,2013-04-08 02:15:00
10:35 PM,44.6,35.6,71,30.01,10.0,North,4.6,-,N/A,,Clear,10,2013-04-08 02:35:00
10:55 PM,44.6,33.8,66,30.01,10.0,Calm,Calm,-,N/A,,Clear,0,2013-04-08 02:55:00
11:15 PM,42.8,33.8,70,30.01,10.0,North,3.5,-,N/A,,Clear,350,2013-04-08 03:15:00
11:35 PM,42.8,33.8,70,30.02,10.0,North,3.5,-,N/A,,Clear,360,2013-04-08 03:35:00
11:55 PM,42.8,33.8,70,30.02,10.0,North,3.5,-,N/A,,Clear,360,2013-04-08 03:55:00